Main page
METAR-TAF:

METAR-TAF

Airports :

Santa Rosa International Airport

Machala, Ecuador

latitude: 03-26-07S, longitude: 079-58-40W, elevation: 52 m

Current weather observation

The report was made 6 hours and 38 minutes ago, at 23:00 UTC
Wind 3 kt from the Northwest
Temperature 24°C
Humidity 78%
Pressure 1011 hPa
Visibility 10 km or more
Broken clouds at a height of 2300 ft
Broken clouds at a height of 20000 ft

METAR: SERO 242300Z 31003KT 9999 BKN023 BKN200 24/20 Q1011

Time: 00:38 (05:38 UTC)


TAF: missing

Weather observations and forecasts of more than 4000 airports (METAR and TAF reports).

The available stations are represented by yellow and red dots on the map.

Hover mouse over dot to see the name of the station.

Then click to see weather observations and forecasts.

To change the map : click on the green buttons with a black cross to zoom in, on the green button with a dash to zoom out, or on the green arrows for adjacent maps.


METAR-TAF: